Regional Weather Roundup
Issued by NWS

Home | Current Version | Previous Version | Graphics & Text | Print | Product List | Glossary On
Versions: 1 2 3 4 5 6 7 8 9 10 11 12 13 14 15 16 17 18 19 20 21 22 23 24 25 26 27 28 29 30 31 32 33 34 35 36 37 38 39 40 41 42 43 44 45 46 47 48 49 50
422
ASUS43 KBIS 131002
RWRND

NORTH DAKOTA REGIONAL WEATHER ROUNDUP
NATIONAL WEATHER SERVICE BISMARCK ND
400 AM CST WED DEC 13 2017

NOTE: "FAIR" INDICATES FEW OR NO CLOUDS BELOW 12,000 FEET WITH NO
SIGNIFICANT WEATHER AND/OR OBSTRUCTIONS TO VISIBILITY.


NDZ001>003-009>011-017-131100-
NORTHWEST NORTH DAKOTA

CITY           SKY/WX    TMP DP  RH WIND       PRES   REMARKS
WILLISTON      CLEAR     35  28  75 NW21G32   29.91R
MINOT          CLEAR     36  29  75 W28G33    29.75R
MINOT AFB      CLEAR     35  29  79 NW25G33   29.73R
$$

NDZ018>021-031>035-040>046-131100-
SOUTHWEST NORTH DAKOTA

CITY           SKY/WX    TMP DP  RH WIND       PRES   REMARKS
BISMARCK       CLEAR     40  30  67 NW26G39   29.75R
DICKINSON      CLEAR     36  26  67 NW24      29.86R
GARRISON         N/A     35  29  78 NW29G40   29.75R
HETTINGER ARPT CLEAR     37  23  56 NW25      29.87R
$$

NDZ004>008-012>016-024-026-027-054-131100-
NORTHEAST NORTH DAKOTA

CITY           SKY/WX    TMP DP  RH WIND       PRES   REMARKS
GRAND FORKS    CLOUDY    28  25  88 N25G36    29.56R WCI  13
GRND FRKS AFB  DRIZZLE   30  27  87 N29G40    29.57R WCI  16
DEVILS LAKE    CLOUDY    34  30  85 NW20      29.61R
$$

NDZ022-023-025-028>030-036>039-047>053-131100-
SOUTHEAST NORTH DAKOTA

CITY           SKY/WX    TMP DP  RH WIND       PRES   REMARKS
FARGO          CLOUDY    36  33  89 NW21G31   29.49R
JAMESTOWN      CLOUDY    37  34  89 NW25G33   29.59R
$$





USA.gov is the U.S. government's official web portal to all federal, state and local government web resources and services.